Regional Weather Roundup
Issued by NWS

Home | Current Version | Previous Version | Text Only | Print | Product List | Glossary On
Versions: 1 2 3 4 5 6 7 8 9 10 11 12 13 14 15 16 17 18 19 20 21 22 23 24 25 26 27 28 29 30 31 32 33 34 35 36 37 38 39 40 41 42 43 44 45 46 47 48 49 50
000
ASUS46 KSTO 202015
RWRCA

NORTHERN AND CENTRAL CA REGIONAL WEATHER ROUNDUP
NATIONAL WEATHER SERVICE SACRAMENTO CA
1200 PM PST MON FEB 20 2017

NOTE: FAIR INDICATES FEW OR NO CLOUDS BELOW 12,000 FEET WITH NO
SIGNIFICANT WEATHER AND/OR OBSTRUCTIONS TO VISIBILITY.

CAZ001-003-202100-
NORTHWEST AREA

CITY           SKY/WX    TMP DP  RH WIND       PRES   REMARKS
CRESCENT CITY  LGT RAIN N/A N/A N/A S9        29.78F
UKIAH          RAIN      53  51  93 S13       29.85R FOG
$$

CAZ006-505>513-202100-
BAY AREA

CITY           SKY/WX    TMP DP  RH WIND       PRES   REMARKS
SANTA ROSA     LGT RAIN  55  54  96 S14       29.91F FOG
SAN RAFAEL     N/A       56  MM  MM MISG
NAPA           LGT RAIN  58  53  84 SE14      29.97S
CONCORD        LGT RAIN  58  55  90 S8        29.99S
OAKLAND CITY   N/A      MM  MM  MM MISG
OAKLAND        RAIN      58  54  86 SE14      30.00F
SAN FRAN CITY  N/A       56  MM  97 MISG
SAN FRAN ARPT  LGT RAIN  57  54  89 E10       29.98F
LIVERMORE      LGT RAIN  56  52  86 S5        30.02R
HAYWARD        LGT RAIN  58  53  84 SE15      30.00F
REDWOOD CITY   N/A       57  MM  97 MISG
MOFFETT ARPT   LGT RAIN  57  57 100 SE9       30.01F
SAN JOSE ARPT  LGT RAIN  58  55  90 E7        30.02F FOG
$$
CAZ034-037-514>518-202100-
CENTRAL COAST

CITY           SKY/WX    TMP DP  RH WIND       PRES   REMARKS
WATSONVILLE    RAIN      56  56 100 S5        30.03F FOG
SALINAS        LGT RAIN  57  55  93 W7        30.02S
MONTEREY       LGT RAIN  57  56  96 E6        30.02F FOG
SAN LUIS OBISP CLOUDY    63  55  75 SE13      30.15S
SANTA MARIA    PTSUNNY   62  55  77 SE18G25   30.15F
$$
CAZ015-016-202100-
NORTHERN SACRAMENTO VALLEY

CITY           SKY/WX    TMP DP  RH WIND       PRES   REMARKS
REDDING        CLOUDY    56  52  86 S23G30    29.81F
RED BLUFF      LGT RAIN  56  52  86 S25G31    29.84S
OROVILLE       LGT RAIN  56  53  90 S26G33    29.92F
$$
CAZ016>018-202100-
SOUTHERN SACRAMENTO VALLEY

CITY           SKY/WX    TMP DP  RH WIND       PRES   REMARKS
AUBURN         CLOUDY    52  52 100 S13       30.00F
BEALE AFB      DRIZZLE   56  54  92 SE21G28   29.94F
LINCOLN        CLOUDY    54  54 100 S17       29.97F
MARYSVILLE     LGT RAIN  56  54  93 S18G30    29.95F
SAC INTL ARPT  LGT RAIN  56  55  97 S17G25    29.97F
MATHER AIRPORT CLOUDY    55  55 100 S14       30.01R
DOWNTOWN SAC   N/A       56  MM  MM MISG
SAC EXEC ARPT  RAIN      56  56 100 SE12      29.99F FOG
VACAVILLE      LGT RAIN  56  55  97 S10       29.99S
TRAVIS AFB     LGT RAIN  55  54  97 S9        29.97S
$$
CAZ019>021-202100-
SAN JOAQUIN VALLEY

CITY           SKY/WX    TMP DP  RH WIND       PRES   REMARKS
STOCKTON       RAIN      57  57 100 SE12      30.01F FOG
MODESTO        LGT RAIN  58  56  93 MISG      30.03R FOG
MERCED         LGT RAIN  60  56  86 SE20G25   30.02F
LEMOORE        CLOUDY    64  56  75 S16       30.11R
FRESNO         CLOUDY    61  54  77 SE17      30.10F
HANFORD        CLOUDY    63  56  78 S15       30.11F
PORTERVILLE    MOSUNNY   66  59  78 CALM      30.14S
BAKERSFIELD    MOSUNNY   71  53  52 NW10      30.11S
$$
CAZ011-012-071-202100-
NORTHERN MOUNTAINS

CITY           SKY/WX    TMP DP  RH WIND       PRES   REMARKS
YREKA          MOSUNNY   52  33  48 SW22      29.74R
MOUNT SHASTA   PTSUNNY   46  39  76 E8        29.78R
ALTURAS        LGT RAIN  44  41  89 S14       29.79R
$$
CAZ011-012-071-202100-
SIERRA NEVADA MTNS

CITY           SKY/WX    TMP DP  RH WIND       PRES   REMARKS
BLUE CANYON    RAIN      36  36 100 S17G32    29.97S VSB 1/4 WCI  26
TRUCKEE        LGT SNOW  34  32  93 S7        29.95S WCI  28
TAHOE VLY ARPT HVY SNOW  33  32  96 S9        29.98R VSB 1/4 WCI  25
MAMMOTH LAKES  LGT RAIN  34  34  99 E9        30.05S WCI  27
$$



USA.gov is the U.S. government's official web portal to all federal, state and local government web resources and services.